Zurück zum Katalog

STARLINK-35290

AktivKommunikationVLEO
NORAD 65846·PAYLOAD·🇺🇸 United States

Gestartet Sep 29, 2025 von Vandenberg Space Force Base

Loading…

Nächste Überflüge (nächste 24 Stunden)

TLE

AktuellSource: CelesTrak SupGP

Epoche: Sep 15, 2026, 02:34 UTC

1 65846C 25221Z   26258.10743056  .00014348  00000+0  42386-3 0  2583
2 65846  53.1572 284.9928 0001198  93.5575 271.7139 15.34388423    11

Verfolge STARLINK-35290 in Echtzeit mit AllMySat

Download on the App Store